QPF
0.01 0.01 0.01 0.01 0.01 0.01 0.01 0.01 0.01 0.01 0.01 0.01 0.01 0.02 0.01 0.01 0.00 0.01 0.01 0.03 0.05 0.05 0.05 0.05 0.04 0.04 0.04 0.03 0.02 0.01 0.01 0.02 0.02 0.03 0.04 0.03 0.03 0.03 0.05 0.07 0.08 0.08 0.07
0.00 0.00 0.00 0.00 0.00 0.01 0.01 0.01 0.01 0.01 0.02 0.02 0.02 0.02 0.01 0.00 0.00 0.00 0.01 0.02 0.04 0.05 0.05 0.04 0.04 0.03 0.03 0.02 0.02 0.02 0.01 0.01 0.01 0.02 0.03 0.04 0.03 0.02 0.03 0.04 0.04 0.03 0.03
0.00 0.00 0.00 0.00 0.00 0.00 0.00 0.00 0.01 0.02 0.02 0.02 0.02 0.02 0.02 0.01 0.01 0.01 0.01 0.02 0.03 0.03 0.04 0.04 0.04 0.04 0.04 0.02 0.02 0.02 0.02 0.02 0.02 0.02 0.03 0.04 0.03 0.03 0.03 0.02 0.02 0.03 0.03
0.01 0.01 0.01 0.01 0.01 0.01 0.01 0.01 0.01 0.03 0.03 0.02 0.02 0.02 0.02 0.01 0.01 0.02 0.02 0.02 0.02 0.02 0.02 0.05 0.06 0.05 0.04 0.04 0.03 0.03 0.03 0.04 0.04 0.03 0.03 0.03 0.03 0.03 0.03 0.02 0.02 0.03 0.04
0.01 0.02 0.02 0.02 0.02 0.02 0.01 0.01 0.01 0.01 0.02 0.02 0.02 0.02 0.02 0.01 0.02 0.02 0.02 0.02 0.02 0.01 0.02 0.02 0.03 0.06 0.07 0.06 0.06 0.05 0.04 0.05 0.04 0.03 0.02 0.01 0.02 0.02 0.02 0.02 0.02 0.02 0.03
0.01 0.01 0.02 0.02 0.02 0.02 0.01 0.01 0.01 0.01 0.02 0.02 0.03 0.02 0.02 0.03 0.03 0.02 0.02 0.02 0.02 0.01 0.01 0.00 0.01 0.02 0.07 0.07 0.06 0.06 0.06 0.05 0.04 0.02 0.01 0.01 0.02 0.02 0.02 0.02 0.02 0.02 0.02
0.01 0.02 0.02 0.02 0.01 0.01 0.01 0.01 0.01 0.01 0.02 0.02 0.03 0.03 0.03 0.04 0.04 0.03 0.03 0.02 0.02 0.01 0.00 0.01 0.01 0.00 0.02 0.04 0.05 0.05 0.06 0.06 0.04 0.03 0.02 0.01 0.01 0.01 0.01 0.02 0.02 0.02 0.02
0.01 0.01 0.02 0.02 0.01 0.01 0.01 0.01 0.01 0.01 0.02 0.03 0.03 0.04 0.04 0.05 0.05 0.04 0.03 0.02 0.02 0.01 0.01 0.01 0.01 0.01 0.01 0.02 0.02 0.03 0.04 0.04 0.03 0.04 0.03 0.02 0.01 0.01 0.01 0.01 0.02 0.02 0.02
0.02 0.02 0.02 0.02 0.01 0.01 0.01 0.01 0.01 0.01 0.01 0.03 0.03 0.03 0.03 0.03 0.03 0.04 0.03 0.02 0.02 0.03 0.02 0.02 0.02 0.02 0.02 0.01 0.01 0.02 0.02 0.03 0.03 0.03 0.03 0.04 0.03 0.02 0.02 0.01 0.02 0.02 0.02
0.02 0.02 0.03 0.02 0.01 0.00 0.00 0.00 0.00 0.01 0.02 0.03 0.03 0.03 0.03 0.02 0.02 0.02 0.03 0.02 0.01 0.02 0.03 0.03 0.03 0.03 0.03 0.02 0.02 0.02 0.02 0.02 0.02 0.03 0.03 0.04 0.04 0.03 0.03 0.02 0.03 0.03 0.04
0.03 0.03 0.01 0.01 0.01 0.00 0.00 0.00 0.00 0.01 0.03 0.03 0.03 0.04 0.04 0.04 0.03 0.02 0.02 0.02 0.02 0.01 0.01 0.01 0.02 0.02 0.03 0.03 0.03 0.03 0.03 0.02 0.02 0.02 0.04 0.05 0.03 0.04 0.05 0.05 0.06 0.06 0.07
0.03 0.03 0.02 0.01 0.01 0.00 0.00 0.01 0.00 0.00 0.01 0.01 0.02 0.03 0.04 0.04 0.05 0.04 0.03 0.02 0.02 0.01 0.01 0.00 0.00 0.01 0.01 0.02 0.04 0.07 0.06 0.04 0.02 0.01 0.02 0.03 0.03 0.03 0.03 0.06 0.10 0.10 0.08
0.02 0.03 0.02 0.01 0.01 0.01 0.00 0.00 0.00 0.01 0.01 0.01 0.01 0.02 0.03 0.03 0.03 0.03 0.02 0.02 0.02 0.01 0.01 0.00 0.00 0.00 0.00 0.01 0.02 0.04 0.07 0.08 0.05 0.03 0.02 0.02 0.02 0.04 0.06 0.10 0.13 0.11 0.08
0.02 0.02 0.02 0.01 0.01 0.01 0.01 0.00 0.00 0.00 0.01 0.00 0.01 0.01 0.02 0.02 0.02 0.02 0.02 0.02 0.02 0.01 0.01 0.01 0.00 0.00 0.00 0.00 0.01 0.02 0.03 0.04 0.05 0.04 0.03 0.02 0.02 0.03 0.04 0.06 0.08 0.08 0.07
0.02 0.02 0.01 0.01 0.00 0.01 0.01 0.01 0.00 0.00 0.00 0.01 0.01 0.01 0.01 0.02 0.02 0.02 0.02 0.02 0.03 0.03 0.02 0.01 0.01 0.00 0.00 0.00 0.00 0.00 0.01 0.02 0.02 0.02 0.02 0.02 0.02 0.02 0.04 0.05 0.05 0.05 0.05
0.02 0.02 0.01 0.01 0.01 0.01 0.01 0.01 0.01 0.01 0.01 0.01 0.01 0.01 0.01 0.01 0.02 0.02 0.03 0.03 0.03 0.03 0.02 0.01 0.01 0.01 0.00 0.00 0.00 0.00 0.00 0.01 0.01 0.01 0.01 0.01 0.01 0.02 0.02 0.03 0.03 0.03 0.03
0.02 0.03 0.03 0.02 0.01 0.01 0.02 0.02 0.02 0.02 0.01 0.02 0.02 0.01 0.00 0.01 0.01 0.02 0.03 0.04 0.05 0.03 0.03 0.02 0.01 0.01 0.00 0.00 0.00 0.01 0.00 0.00 0.00 0.00 0.00 0.00 0.01 0.02 0.02 0.02 0.02 0.02 0.02
0.03 0.03 0.03 0.02 0.01 0.01 0.01 0.02 0.02 0.01 0.01 0.01 0.01 0.01 0.01 0.01 0.01 0.02 0.04 0.05 0.04 0.03 0.03 0.03 0.02 0.01 0.00 0.00 0.01 0.01 0.01 0.01 0.01 0.00 0.00 0.00 0.00 0.01 0.01 0.01 0.01 0.01 0.01
0.03 0.03 0.02 0.02 0.02 0.01 0.01 0.02 0.02 0.02 0.01 0.01 0.01 0.00 0.00 0.01 0.01 0.02 0.03 0.03 0.03 0.02 0.02 0.01 0.01 0.01 0.01 0.00 0.01 0.01 0.01 0.01 0.01 0.01 0.00 0.00 0.00 0.00 0.01 0.01 0.01 0.01 0.00
0.03 0.03 0.02 0.02 0.01 0.01 0.01 0.01 0.02 0.02 0.02 0.01 0.01 0.01 0.00 0.00 0.01 0.01 0.02 0.01 0.02 0.02 0.03 0.02 0.02 0.01 0.01 0.01 0.00 0.01 0.01 0.01 0.01 0.01 0.01 0.01 0.00 0.00 0.00 0.00 0.00 0.00 0.00
0.05 0.03 0.02 0.02 0.01 0.01 0.01 0.01 0.01 0.01 0.02 0.01 0.01 0.01 0.01 0.01 0.01 0.01 0.02 0.02 0.02 0.02 0.03 0.03 0.02 0.01 0.01 0.01 0.01 0.01 0.01 0.01 0.01 0.01 0.01 0.01 0.01 0.00 0.00 0.00 0.00 0.00 0.00
0.08 0.06 0.03 0.02 0.02 0.02 0.01 0.01 0.01 0.01 0.01 0.01 0.01 0.00 0.01 0.01 0.01 0.01 0.02 0.02 0.03 0.03 0.03 0.03 0.02 0.02 0.02 0.01 0.01 0.01 0.01 0.01 0.00 0.00 0.00 0.00 0.00 0.00 0.00 0.00 0.00 0.00 0.00
0.07 0.07 0.05 0.03 0.02 0.02 0.02 0.02 0.02 0.01 0.01 0.01 0.01 0.01 0.01 0.01 0.01 0.01 0.01 0.02 0.02 0.02 0.02 0.02 0.02 0.02 0.02 0.02 0.01 0.01 0.01 0.01 0.01 0.00 0.00 0.00 0.00 0.00 0.00 0.00 0.00 0.00 0.00
0.04 0.05 0.05 0.04 0.03 0.02 0.03 0.02 0.02 0.02 0.02 0.01 0.01 0.01 0.01 0.01 0.01 0.01 0.01 0.01 0.01 0.01 0.02 0.02 0.02 0.03 0.03 0.02 0.02 0.01 0.01 0.01 0.00 0.00 0.00 0.00 0.00 0.00 0.00 0.00 0.00 0.00 0.00
0.02 0.03 0.04 0.04 0.03 0.02 0.03 0.02 0.03 0.02 0.02 0.02 0.01 0.01 0.01 0.01 0.01 0.01 0.01 0.01 0.01 0.01 0.02 0.02 0.03 0.03 0.04 0.04 0.04 0.04 0.03 0.03 0.02 0.01 0.00 0.00 0.00 0.00 0.00 0.01 0.00 0.01 0.01
0.02 0.02 0.04 0.04 0.04 0.03 0.03 0.03 0.03 0.03 0.02 0.02 0.01 0.01 0.01 0.01 0.01 0.01 0.01 0.01 0.01 0.01 0.01 0.01 0.02 0.02 0.02 0.02 0.03 0.04 0.04 0.04 0.03 0.02 0.01 0.01 0.01 0.00 0.00 0.00 0.00 0.00 0.01
MSLP
1013.66 1013.72 1013.74 1013.73 1013.73 1013.75 1013.81 1013.91 1014.03 1014.16 1014.27 1014.35 1014.37 1014.35 1014.30 1014.23 1014.17 1014.12 1014.08 1014.07 1014.06 1014.06 1014.05 1014.03 1013.99 1013.95 1013.91 1013.85 1013.79 1013.72 1013.63 1013.52 1013.39 1013.26 1013.12 1012.99 1012.88 1012.79 1012.71 1012.62 1012.51 1012.35 1012.13
1014.14 1014.16 1014.16 1014.13 1014.12 1014.13 1014.18 1014.26 1014.36 1014.45 1014.52 1014.54 1014.51 1014.42 1014.31 1014.18 1014.06 1013.96 1013.89 1013.86 1013.85 1013.86 1013.86 1013.86 1013.84 1013.80 1013.73 1013.65 1013.55 1013.43 1013.29 1013.15 1013.01 1012.87 1012.74 1012.64 1012.55 1012.48 1012.41 1012.33 1012.21 1012.04 1011.82
1014.44 1014.44 1014.43 1014.41 1014.41 1014.44 1014.49 1014.57 1014.64 1014.71 1014.73 1014.70 1014.61 1014.47 1014.29 1014.10 1013.91 1013.76 1013.65 1013.58 1013.55 1013.55 1013.56 1013.56 1013.55 1013.51 1013.43 1013.32 1013.19 1013.03 1012.86 1012.68 1012.52 1012.38 1012.27 1012.18 1012.12 1012.06 1012.01 1011.93 1011.81 1011.64 1011.42
1014.57 1014.56 1014.56 1014.56 1014.59 1014.64 1014.71 1014.79 1014.86 1014.90 1014.88 1014.81 1014.68 1014.49 1014.26 1014.01 1013.77 1013.56 1013.40 1013.28 1013.22 1013.19 1013.19 1013.18 1013.16 1013.12 1013.03 1012.90 1012.74 1012.55 1012.35 1012.16 1011.98 1011.83 1011.72 1011.65 1011.60 1011.56 1011.52 1011.44 1011.33 1011.16 1010.94
1014.56 1014.55 1014.56 1014.60 1014.66 1014.74 1014.83 1014.91 1014.97 1014.99 1014.96 1014.86 1014.70 1014.48 1014.23 1013.94 1013.66 1013.41 1013.19 1013.02 1012.91 1012.84 1012.80 1012.77 1012.74 1012.68 1012.58 1012.43 1012.25 1012.04 1011.82 1011.60 1011.42 1011.27 1011.16 1011.10 1011.06 1011.03 1010.98 1010.91 1010.79 1010.62 1010.41
1014.47 1014.46 1014.49 1014.55 1014.64 1014.74 1014.84 1014.92 1014.97 1014.98 1014.93 1014.83 1014.67 1014.46 1014.20 1013.91 1013.61 1013.33 1013.06 1012.84 1012.67 1012.54 1012.45 1012.38 1012.32 1012.23 1012.11 1011.96 1011.76 1011.53 1011.30 1011.07 1010.88 1010.72 1010.62 1010.56 1010.52 1010.49 1010.44 1010.36 1010.23 1010.06 1009.84
1014.37 1014.36 1014.40 1014.47 1014.57 1014.67 1014.76 1014.83 1014.86 1014.86 1014.81 1014.72 1014.58 1014.40 1014.17 1013.91 1013.62 1013.32 1013.02 1012.75 1012.51 1012.32 1012.16 1012.04 1011.93 1011.81 1011.67 1011.49 1011.28 1011.05 1010.81 1010.58 1010.38 1010.22 1010.12 1010.05 1010.00 1009.96 1009.90 1009.80 1009.66 1009.47 1009.25
1014.35 1014.32 1014.35 1014.41 1014.49 1014.57 1014.63 1014.66 1014.67 1014.65 1014.61 1014.54 1014.45 1014.32 1014.15 1013.93 1013.67 1013.37 1013.05 1012.72 1012.42 1012.15 1011.92 1011.73 1011.56 1011.41 1011.24 1011.05 1010.83 1010.59 1010.35 1010.12 1009.92 1009.76 1009.65 1009.57 1009.51 1009.45 1009.37 1009.25 1009.08 1008.88 1008.64
1014.47 1014.41 1014.41 1014.43 1014.47 1014.49 1014.49 1014.47 1014.44 1014.40 1014.37 1014.33 1014.29 1014.22 1014.11 1013.95 1013.72 1013.43 1013.09 1012.72 1012.35 1012.00 1011.69 1011.43 1011.20 1010.99 1010.80 1010.59 1010.36 1010.13 1009.89 1009.66 1009.46 1009.30 1009.18 1009.09 1009.02 1008.94 1008.83 1008.68 1008.49 1008.27 1008.02
1014.75 1014.66 1014.61 1014.58 1014.54 1014.49 1014.42 1014.33 1014.25 1014.18 1014.14 1014.13 1014.13 1014.12 1014.07 1013.95 1013.76 1013.47 1013.10 1012.68 1012.24 1011.82 1011.43 1011.08 1010.79 1010.54 1010.31 1010.09 1009.86 1009.62 1009.38 1009.16 1008.96 1008.79 1008.66 1008.56 1008.47 1008.37 1008.24 1008.08 1007.87 1007.64 1007.38
1015.18 1015.06 1014.95 1014.85 1014.74 1014.60 1014.44 1014.28 1014.14 1014.04 1013.99 1013.98 1014.01 1014.04 1014.02 1013.94 1013.75 1013.45 1013.05 1012.57 1012.07 1011.56 1011.09 1010.68 1010.33 1010.03 1009.77 1009.53 1009.29 1009.05 1008.81 1008.58 1008.37 1008.20 1008.06 1007.95 1007.85 1007.74 1007.60 1007.43 1007.22 1006.98 1006.74
1015.72 1015.56 1015.40 1015.23 1015.04 1014.82 1014.59 1014.36 1014.16 1014.01 1013.94 1013.93 1013.96 1014.00 1013.99 1013.90 1013.70 1013.37 1012.93 1012.40 1011.82 1011.24 1010.70 1010.23 1009.82 1009.48 1009.19 1008.93 1008.67 1008.42 1008.17 1007.93 1007.72 1007.53 1007.38 1007.26 1007.15 1007.03 1006.90 1006.74 1006.54 1006.33 1006.10
1016.29 1016.09 1015.89 1015.67 1015.41 1015.13 1014.83 1014.54 1014.30 1014.12 1014.01 1013.98 1013.99 1014.01 1013.99 1013.87 1013.64 1013.26 1012.76 1012.18 1011.54 1010.90 1010.30 1009.77 1009.32 1008.95 1008.62 1008.33 1008.06 1007.78 1007.51 1007.25 1007.00 1006.80 1006.63 1006.49 1006.38 1006.27 1006.15 1006.02 1005.86 1005.68 1005.50
1016.82 1016.60 1016.37 1016.11 1015.81 1015.48 1015.15 1014.82 1014.54 1014.33 1014.20 1014.14 1014.12 1014.10 1014.03 1013.87 1013.59 1013.16 1012.61 1011.97 1011.28 1010.60 1009.96 1009.39 1008.91 1008.50 1008.15 1007.82 1007.51 1007.20 1006.88 1006.58 1006.30 1006.05 1005.85 1005.70 1005.58 1005.48 1005.39 1005.30 1005.19 1005.07 1004.95
1017.26 1017.04 1016.79 1016.51 1016.20 1015.86 1015.50 1015.16 1014.86 1014.63 1014.47 1014.37 1014.31 1014.24 1014.13 1013.92 1013.58 1013.10 1012.51 1011.84 1011.12 1010.41 1009.75 1009.16 1008.64 1008.21 1007.82 1007.45 1007.09 1006.73 1006.36 1005.99 1005.65 1005.35 1005.11 1004.92 1004.79 1004.71 1004.64 1004.60 1004.55 1004.50 1004.45
1017.61 1017.39 1017.14 1016.87 1016.56 1016.21 1015.86 1015.52 1015.22 1014.97 1014.78 1014.65 1014.55 1014.43 1014.26 1014.00 1013.62 1013.11 1012.49 1011.80 1011.07 1010.36 1009.69 1009.09 1008.56 1008.10 1007.67 1007.26 1006.84 1006.41 1005.97 1005.53 1005.12 1004.75 1004.44 1004.21 1004.06 1003.96 1003.92 1003.92 1003.93 1003.96 1003.98
1017.89 1017.68 1017.45 1017.18 1016.88 1016.55 1016.21 1015.87 1015.56 1015.30 1015.10 1014.93 1014.79 1014.62 1014.40 1014.10 1013.69 1013.16 1012.53 1011.84 1011.12 1010.42 1009.76 1009.16 1008.63 1008.14 1007.68 1007.22 1006.75 1006.25 1005.73 1005.20 1004.70 1004.25 1003.87 1003.58 1003.38 1003.27 1003.23 1003.25 1003.31 1003.39 1003.48
1018.17 1017.97 1017.75 1017.49 1017.20 1016.87 1016.53 1016.19 1015.88 1015.60 1015.36 1015.16 1014.97 1014.76 1014.51 1014.17 1013.74 1013.20 1012.58 1011.91 1011.21 1010.53 1009.89 1009.29 1008.76 1008.25 1007.76 1007.26 1006.73 1006.17 1005.57 1004.97 1004.39 1003.85 1003.39 1003.02 1002.76 1002.60 1002.53 1002.55 1002.64 1002.77 1002.92
1018.51 1018.32 1018.09 1017.83 1017.53 1017.20 1016.84 1016.49 1016.15 1015.84 1015.56 1015.31 1015.08 1014.82 1014.52 1014.16 1013.71 1013.17 1012.56 1011.91 1011.24 1010.58 1009.95 1009.36 1008.82 1008.31 1007.80 1007.27 1006.70 1006.09 1005.45 1004.78 1004.13 1003.52 1002.97 1002.52 1002.17 1001.95 1001.83 1001.82 1001.90 1002.05 1002.24
1018.94 1018.74 1018.51 1018.23 1017.91 1017.54 1017.15 1016.76 1016.37 1016.00 1015.67 1015.36 1015.07 1014.76 1014.43 1014.03 1013.56 1013.02 1012.41 1011.76 1011.10 1010.46 1009.84 1009.26 1008.72 1008.20 1007.68 1007.14 1006.56 1005.94 1005.27 1004.58 1003.88 1003.20 1002.59 1002.05 1001.63 1001.31 1001.13 1001.06 1001.10 1001.24 1001.45
1019.46 1019.26 1019.00 1018.69 1018.32 1017.91 1017.46 1017.00 1016.54 1016.10 1015.70 1015.32 1014.96 1014.60 1014.20 1013.76 1013.26 1012.70 1012.08 1011.43 1010.76 1010.11 1009.48 1008.90 1008.35 1007.83 1007.32 1006.80 1006.24 1005.63 1004.99 1004.30 1003.59 1002.89 1002.23 1001.63 1001.12 1000.72 1000.44 1000.30 1000.28 1000.39 1000.60
1020.05 1019.82 1019.53 1019.18 1018.75 1018.27 1017.75 1017.21 1016.67 1016.16 1015.67 1015.21 1014.77 1014.34 1013.88 1013.39 1012.84 1012.24 1011.59 1010.90 1010.21 1009.53 1008.88 1008.28 1007.73 1007.21 1006.72 1006.22 1005.71 1005.16 1004.57 1003.93 1003.26 1002.57 1001.89 1001.25 1000.68 1000.20 999.83 999.60 999.51 999.57 999.75
1020.63 1020.38 1020.06 1019.65 1019.17 1018.62 1018.02 1017.40 1016.79 1016.19 1015.62 1015.08 1014.56 1014.05 1013.53 1012.97 1012.36 1011.70 1011.00 1010.26 1009.52 1008.79 1008.10 1007.46 1006.89 1006.37 1005.90 1005.45 1005.00 1004.52 1004.02 1003.46 1002.87 1002.23 1001.58 1000.94 1000.33 999.79 999.35 999.04 998.87 998.86 999.00
1021.14 1020.88 1020.52 1020.07 1019.53 1018.92 1018.27 1017.58 1016.89 1016.22 1015.58 1014.98 1014.39 1013.81 1013.22 1012.60 1011.92 1011.20 1010.42 1009.61 1008.80 1008.00 1007.25 1006.56 1005.95 1005.42 1004.96 1004.54 1004.15 1003.77 1003.36 1002.91 1002.42 1001.87 1001.28 1000.68 1000.08 999.52 999.03 998.65 998.42 998.35 998.44
1021.55 1021.27 1020.88 1020.40 1019.83 1019.19 1018.49 1017.76 1017.02 1016.31 1015.62 1014.96 1014.32 1013.69 1013.04 1012.35 1011.61 1010.82 1009.97 1009.09 1008.20 1007.32 1006.48 1005.72 1005.05 1004.48 1004.00 1003.60 1003.25 1002.93 1002.62 1002.28 1001.90 1001.46 1000.97 1000.44 999.89 999.35 998.86 998.46 998.18 998.06 998.10
1021.84 1021.55 1021.16 1020.67 1020.08 1019.42 1018.70 1017.96 1017.20 1016.47 1015.75 1015.06 1014.39 1013.72 1013.03 1012.30 1011.51 1010.66 1009.74 1008.79 1007.81 1006.84 1005.91 1005.06 1004.30 1003.65 1003.12 1002.68 1002.34 1002.05 1001.80 1001.55 1001.27 1000.95 1000.58 1000.16 999.70 999.23 998.79 998.40 998.11 997.96 997.95
Thickness
5715 5715 5715 5714 5714 5713 5713 5712 5712 5712 5712 5712 5712 5712 5712 5712 5712 5713 5714 5715 5716 5716 5717 5717 5717 5717 5717 5716 5716 5716 5716 5716 5716 5716 5716 5716 5716 5715 5715 5716 5716 5716 5716
5712 5711 5710 5710 5709 5709 5708 5708 5707 5707 5707 5707 5706 5706 5706 5707 5707 5707 5708 5709 5709 5710 5711 5712 5712 5712 5712 5712 5711 5711 5711 5711 5711 5711 5711 5711 5711 5711 5711 5711 5711 5712 5712
5708 5707 5706 5705 5705 5704 5704 5704 5703 5703 5702 5702 5701 5701 5701 5701 5702 5702 5703 5703 5704 5704 5705 5706 5707 5707 5707 5707 5707 5707 5707 5707 5707 5707 5707 5707 5707 5707 5707 5707 5707 5707 5708
5705 5704 5703 5701 5701 5701 5700 5700 5699 5697 5696 5695 5695 5695 5695 5696 5696 5697 5697 5697 5698 5699 5699 5700 5701 5702 5702 5702 5703 5703 5703 5703 5703 5703 5703 5702 5702 5702 5702 5702 5702 5703 5703
5702 5701 5699 5698 5697 5697 5696 5696 5694 5693 5691 5690 5690 5690 5690 5690 5691 5691 5691 5692 5693 5693 5694 5695 5695 5696 5697 5697 5698 5698 5698 5698 5699 5698 5698 5698 5698 5698 5698 5698 5698 5698 5698
5699 5697 5696 5694 5694 5692 5691 5691 5689 5688 5687 5686 5687 5685 5685 5685 5685 5686 5686 5687 5687 5688 5689 5689 5690 5691 5691 5692 5693 5693 5693 5694 5694 5694 5694 5693 5693 5693 5693 5693 5693 5693 5694
5695 5694 5693 5691 5690 5689 5687 5687 5685 5684 5682 5682 5680 5678 5679 5680 5680 5681 5681 5682 5682 5683 5684 5684 5685 5685 5686 5686 5687 5688 5688 5689 5689 5689 5688 5688 5688 5688 5688 5688 5688 5689 5689
5692 5691 5690 5688 5686 5685 5683 5682 5682 5680 5679 5678 5675 5672 5669 5671 5674 5676 5676 5676 5677 5678 5678 5679 5679 5680 5680 5681 5681 5682 5683 5683 5683 5683 5683 5683 5683 5683 5683 5683 5684 5684 5684
5689 5688 5687 5685 5683 5682 5680 5679 5678 5677 5674 5673 5672 5670 5665 5663 5664 5668 5670 5671 5671 5672 5673 5673 5674 5675 5675 5675 5676 5676 5677 5678 5678 5678 5679 5678 5678 5678 5678 5678 5679 5679 5679
5686 5685 5683 5682 5680 5679 5677 5676 5675 5674 5672 5669 5668 5667 5666 5665 5661 5660 5663 5665 5666 5667 5667 5668 5669 5669 5669 5670 5671 5671 5672 5672 5673 5673 5673 5673 5673 5673 5673 5673 5673 5674 5674
5682 5681 5680 5678 5677 5675 5674 5673 5672 5671 5669 5667 5665 5663 5662 5660 5659 5657 5656 5657 5659 5661 5662 5663 5663 5664 5664 5665 5666 5666 5667 5667 5667 5668 5668 5668 5668 5668 5668 5668 5668 5668 5669
5678 5677 5676 5675 5673 5672 5671 5669 5668 5667 5666 5665 5663 5662 5660 5658 5656 5654 5652 5651 5652 5655 5657 5658 5658 5659 5659 5660 5660 5661 5661 5662 5662 5662 5662 5662 5662 5662 5663 5663 5663 5663 5663
5673 5673 5672 5671 5669 5668 5667 5666 5665 5663 5663 5661 5660 5659 5658 5657 5656 5653 5650 5648 5647 5648 5650 5652 5653 5654 5654 5654 5655 5655 5656 5656 5656 5656 5656 5656 5656 5656 5657 5657 5657 5657 5657
5671 5670 5669 5668 5666 5665 5664 5662 5661 5660 5659 5658 5657 5656 5654 5654 5653 5652 5649 5645 5643 5642 5644 5646 5648 5649 5650 5650 5650 5650 5650 5650 5650 5650 5650 5650 5650 5650 5650 5651 5651 5650 5650
5667 5666 5665 5664 5663 5661 5660 5659 5657 5656 5655 5654 5653 5652 5651 5650 5649 5648 5647 5646 5642 5639 5639 5641 5643 5645 5645 5645 5645 5645 5644 5644 5644 5645 5644 5644 5644 5644 5644 5644 5644 5644 5644
5664 5662 5661 5660 5659 5657 5656 5655 5653 5652 5651 5649 5649 5647 5646 5646 5645 5644 5643 5642 5640 5638 5636 5638 5638 5639 5640 5640 5640 5639 5639 5639 5639 5639 5639 5638 5638 5638 5638 5638 5638 5637 5637
5660 5658 5657 5656 5654 5653 5652 5650 5649 5648 5646 5645 5644 5643 5642 5642 5641 5639 5638 5637 5636 5634 5632 5632 5633 5634 5634 5634 5634 5634 5633 5633 5633 5633 5633 5632 5632 5632 5632 5632 5631 5631 5631
5655 5654 5652 5651 5650 5649 5648 5646 5644 5643 5642 5640 5639 5638 5638 5638 5636 5635 5634 5632 5631 5630 5629 5627 5627 5627 5628 5628 5628 5627 5627 5627 5627 5627 5627 5627 5626 5626 5626 5626 5625 5625 5625
5650 5648 5647 5646 5645 5644 5643 5642 5640 5639 5638 5637 5635 5634 5633 5632 5631 5630 5629 5628 5627 5626 5624 5622 5621 5621 5621 5621 5621 5621 5621 5621 5621 5621 5621 5621 5620 5620 5620 5620 5620 5619 5619
5644 5643 5642 5641 5641 5640 5639 5637 5635 5634 5633 5632 5631 5630 5630 5629 5627 5626 5625 5624 5622 5620 5618 5617 5615 5615 5614 5614 5613 5613 5613 5613 5613 5614 5615 5615 5615 5614 5614 5614 5614 5614 5613
5639 5637 5636 5635 5634 5634 5634 5633 5631 5630 5628 5627 5626 5626 5626 5626 5625 5624 5622 5620 5618 5615 5613 5611 5609 5608 5608 5607 5607 5607 5606 5606 5606 5607 5608 5608 5608 5608 5609 5609 5608 5608 5608
5632 5630 5629 5628 5628 5630 5630 5629 5627 5625 5623 5622 5621 5621 5621 5621 5621 5620 5619 5618 5616 5612 5609 5607 5605 5604 5604 5603 5602 5601 5599 5598 5599 5601 5600 5601 5601 5602 5603 5603 5603 5603 5603
5625 5623 5623 5622 5622 5624 5624 5623 5622 5620 5618 5617 5616 5616 5616 5617 5615 5614 5613 5612 5611 5610 5609 5606 5602 5602 5601 5600 5598 5595 5594 5594 5594 5595 5593 5594 5594 5595 5596 5597 5597 5598 5597
5619 5618 5617 5617 5617 5618 5618 5618 5617 5615 5613 5612 5611 5611 5610 5610 5610 5608 5607 5605 5603 5602 5602 5601 5600 5599 5598 5596 5594 5593 5590 5588 5587 5587 5586 5586 5587 5588 5590 5591 5591 5591 5592
5614 5613 5612 5612 5611 5611 5612 5612 5611 5609 5607 5606 5605 5605 5604 5604 5604 5603 5600 5598 5596 5596 5596 5595 5594 5593 5592 5590 5588 5585 5582 5580 5580 5580 5579 5579 5580 5580 5582 5584 5585 5586 5586
5608 5607 5605 5605 5604 5604 5605 5606 5605 5603 5600 5599 5598 5598 5598 5598 5598 5597 5594 5592 5590 5589 5588 5587 5586 5585 5583 5582 5580 5579 5577 5574 5572 5573 5573 5571 5572 5572 5574 5577 5578 5579 5579